Weather in Campulung Moldovenesc

Romania     47°31′31″N   25°34′34″E
temp.,
°C
wind,
m/s
gust,
m/s
humid.,
%
clouds,
%
prec.,
mm/h
press.,
hPa
HPBL,
m
21 june, mon
mon2100:00+14nne119852 0.6 101317
03:00+12nw119862 0.8 101311
06:00+13nne009838 0.1 101315
09:00+16e118638 0.3 1012494
12:00+21sse126259 0.1 10121187
15:00+23ese224986 0.2 10101737
18:00+19e238599 1.6 1011291
21:00+16ese119463 3.1 101211
22 june, tue
tue2200:00+13sw11965 0.0 101312
03:00+12sw11960 0.0 101413
06:00+12wsw22960 0.0 101325
09:00+19se01770 0.0 1013282
12:00+25e12450 0.0 10121527
15:00+26e444533 0.0 10111917
18:00+23e12627 0.4 1012782
21:00+17ne11919 1.7 101411
23 june, wed
wed2300:00+15sw11940 1.1 101511
03:00+14sw11940 1.8 101511
06:00+13wsw21932 0.0 101517
09:00+21wsw117222 0.0 1015243
12:00+27ene114595 0.0 10141733
15:00+26nne1147100 0.3 10141279
18:00+17s2297100 19.4 1018100
21:00+16sw1196100 19.9 101723
24 june, thu
thu2400:00+15wsw119537 0.0 101913
03:00+14wsw21935 0.0 101914
06:00+14wsw11925 0.1 101914
09:00+21n017619 0.1 1018262
12:00+27n12509 0.0 10171698
15:00+24e3564100 0.0 1017303
18:00+23ene127515 2.0 1017483
21:00+16sw1196100 5.8 101825
25 june, fri
fri2500:00+15sw21930 0.0 101913
03:00+14sw22940 0.0 101718
06:00+15wsw22940 0.0 101822
09:00+21sw1178100 0.0 1016149
12:00+29wsw12416 0.0 10151373
15:00+30w68343 0.0 10122784
18:00+19ese248358 2.1 1018323
21:00+16nnw11975 2.8 101713